Location: Pompeys Pillar
(45.9913°N, 107.9528°W)
Time: 03:58:20
(UTC+00:00)

Tiros 1 - Pass Details

Date: 29 May 2022
Orbit: 629 x 663 km, 48.4° (Epoch: 30 June)

Event Time Altitude Azimuth Distance (km) Brightness Sun altitude
Rises 10:17:14 0° 282° (WNW) 2,924 10.2 -10.1°
Reaches altitude 10° 10:19:34 10° 285° (WNW) 2,019 9.4 -9.8°
Maximum altitude 10:24:12 70° 9° (N) 680 7.4 -9.2°
Drops below altitude 10° 10:28:53 10° 94° (E) 2,036 10.4 -8.7°
Sets 10:31:14 0° 97° (E) 2,950 11.2 -8.4°
